Wolf Point, MT

9:43 PM MDT on September 24, 2017 (GMT -0600)
Clayton

Weather History for KOLF - May, 2013

Change the Weather History Date:

Wednesday, May 8, 2013

  Actual Average Record
Temperature  
Mean Temperature 57 °F -  
Max Temperature 66 °F 68 °F 80 °F (2016)
Min Temperature 48 °F 36 °F 24 °F (2014)
Degree Days  
Heating Degree Days 8    
Cooling Degree Days 0    
Growing Degree Days 6 (Base 50)    
Moisture  
Dew Point 32 °F    
Average Humidity 44    
Maximum Humidity 64    
Minimum Humidity 27    
Precipitation  
Precipitation 0.00 in 0.04 in 0.37 in (2005)
Month to date precipitation 0.19 0.30  
Year to date precipitation 1.17 2.22  
Sea Level Pressure  
Sea Level Pressure 30.14 in    
Wind  
Wind Speed 16 mph (ENE)    
Max Wind Speed 22 mph    
Max Gust Speed 31 mph    
Visibility 10 miles    
Events      
T = Trace of Precipitation, MM = Missing Value Source: NWS Daily Summary

Daily Weather History Graph

Daily Weather History Graph

Search for Another Location

Airport or City:

Trip Planner

Search our weather history database for the weather conditions in past years. The results will help you decide how hot, cold, wet, or windy it might be!

Date:

Astronomy

May. 08, 2013 Rise Set
Actual Time 5:32 AM MDT 8:25 PM MDT
Civil Twilight 4:56 AM MDT 9:02 PM MDT
Nautical Twilight 4:10 AM MDT 9:48 PM MDT
Astronomical Twilight 3:14 AM MDT 10:44 PM MDT
Moon 4:48 AM MDT (5/8) 7:23 PM MDT (5/8)
Length of Visible Light 16h 05m
Length of Day
14h 53m
Waning Crescent, 2% of the Moon is Illuminated
May 8
Waning Crescent
May 9
New
May 17
First Quarter
May 24
Full
May 31
Last Quarter

Hourly Weather History & Observations

Time (MDT) Temp. Dew Point Humidity Pressure Visibility Wind Dir Wind Speed Gust Speed Precip Events Conditions
12:53 AM 53.1 °F 37.9 °F 57% 29.98 in 10.0 mi NNE 21.9 mph 31.1 mph N/A   Clear
1:53 AM 51.1 °F 36.0 °F 56% 29.99 in 10.0 mi NNE 17.3 mph 26.5 mph N/A   Clear
2:53 AM 50.0 °F 36.0 °F 59% 30.00 in 10.0 mi NNE 18.4 mph - N/A   Partly Cloudy
3:53 AM 48.9 °F 36.0 °F 61% 30.03 in 10.0 mi NNE 12.7 mph - N/A   Clear
4:53 AM 48.9 °F 37.0 °F 64% 30.04 in 10.0 mi NE 11.5 mph - N/A   Clear
5:53 AM 48.9 °F 37.0 °F 64% 30.06 in 10.0 mi NE 13.8 mph - N/A   Clear
7:53 AM 48.9 °F 36.0 °F 61% 30.14 in 10.0 mi NE 16.1 mph 24.2 mph N/A   Clear
8:53 AM 52.0 °F 35.1 °F 53% 30.16 in 10.0 mi ENE 19.6 mph - N/A   Partly Cloudy
9:53 AM 54.0 °F 34.0 °F 47% 30.17 in 10.0 mi NE 17.3 mph 24.2 mph N/A   Scattered Clouds
10:53 AM 55.0 °F 33.1 °F 43% 30.18 in 10.0 mi ENE 13.8 mph 25.3 mph N/A   Partly Cloudy
11:53 AM 57.0 °F 33.1 °F 40% 30.18 in 10.0 mi ENE 16.1 mph 23.0 mph N/A   Clear
12:53 PM 60.1 °F 33.1 °F 36% 30.18 in 10.0 mi ENE 17.3 mph 23.0 mph N/A   Clear
1:53 PM 62.1 °F 30.9 °F 31% 30.18 in 10.0 mi ENE 12.7 mph 23.0 mph N/A   Mostly Cloudy
2:53 PM 64.9 °F 30.9 °F 28% 30.17 in 10.0 mi ENE 18.4 mph 26.5 mph N/A   Clear
3:53 PM 64.9 °F 30.9 °F 28% 30.17 in 10.0 mi East 15.0 mph - N/A   Clear
4:53 PM 64.9 °F 30.0 °F 27% 30.16 in 10.0 mi East 15.0 mph 23.0 mph N/A   Clear
5:53 PM 64.0 °F 30.9 °F 29% 30.16 in 10.0 mi East 11.5 mph - N/A   Clear
6:53 PM 63.0 °F 30.0 °F 29% 30.16 in 10.0 mi ENE 13.8 mph - N/A   Clear
7:53 PM 59.0 °F 28.0 °F 31% 30.17 in 10.0 mi ENE 12.7 mph - N/A   Clear
8:53 PM 51.1 °F 28.0 °F 41% 30.19 in 10.0 mi NE 8.1 mph - N/A   Clear
9:53 PM 50.0 °F 28.0 °F 43% 30.21 in 10.0 mi East 6.9 mph - N/A   Clear
10:53 PM 50.0 °F 28.0 °F 43% 30.21 in 10.0 mi East 10.4 mph - N/A   Clear
11:53 PM 50.0 °F 27.0 °F 41% 30.22 in 10.0 mi East 10.4 mph - N/A   Clear